[[{"header":{"parameterUnit":"m.s-1","parameterCategory":1,"la1":30.2991,"la2":30.254,"lo1":-89.0895,"lo2":-89.0444,"dy":0.0017,"dx":0.0017,"nx":28,"ny":28,"refTime":"2026-03-05T09:00:00:Z","depth":0,"parameterNumber":2,"parameterNumberName":"U-component_of_WINDS"},"data":[0,0,0,0,0,0,0,0,0,0,0,0,0,0,0,0,0,0,0,0,0,0,0,0,0,0,0,0,0,0,0,0,0,0,0,0,0,0,0,0,0,0,0,0,0,0,0,0,0,0,0,0,0,0,0,0,0,0,-4.676,-4.6762,0,-4.6939,-4.6941,-4.6943,-4.6949,-4.6947,-4.6945,-4.6943,-4.7127,-4.7134,-4.7141,0,0,0,0,0,0,0,0,0,0,0,0,0,-4.6427,-4.6433,-4.676,-4.6762,-4.6764,-4.6939,-4.6941,-4.6944,-4.695,-4.6947,-4.6944,-4.6942,-4.7125,-4.7133,-4.7141,0,0,0,0,0,0,0,0,0,0,0,0,0,-4.6585,-4.6435,-4.6759,-4.6788,-4.6793,-4.6938,-4.6941,-4.6944,-4.695,-4.6947,-4.6944,-4.6941,-4.7122,-4.7132,-4.7143,-4.7272,0,0,-4.7174,-4.7179,0,0,0,0,0,0,0,0,-4.6576,-4.6597,-4.6782,-4.6787,-4.6792,-4.6919,-4.6891,-4.7054,-4.6951,-4.689,-4.6943,-4.6939,-4.7061,-4.7076,-4.7117,-4.7281,-4.7288,-4.7175,-4.7182,-4.7186,-4.7189,0,0,0,0,0,0,0,-4.6565,-4.659,-4.6831,-4.6785,-4.6791,-4.6794,-4.6813,-4.6922,-4.6992,-4.6895,-4.6896,-4.6917,-4.7063,-4.7107,-4.7121,-4.7291,-4.7175,-4.7184,-4.7191,-4.7195,-4.7574,-4.7578,0,0,0,0,0,0,-4.6548,-4.658,-4.6825,-4.6836,-4.6674,-4.6802,-4.6823,-4.6881,-4.699,-4.7004,-4.692,-4.6917,-4.709,-4.7109,-4.7127,-4.7287,-4.7186,-4.7196,-4.7202,-4.757,-4.7575,-4.7579,0,0,0,0,0,0,-4.6541,-4.657,-4.6818,-4.6709,-4.6741,-4.6811,-4.6876,-4.6886,-4.693,-4.7009,-4.7022,-4.6952,-4.7089,-4.7113,-4.7237,-4.7294,-4.72,-4.721,-4.7566,-4.7572,-4.7577,-4.7607,0,0,0,0,0,0,-4.6531,-4.6567,-4.6616,-4.671,-4.6746,-4.6923,-4.688,-4.6892,-4.6948,-4.6946,-4.7042,-4.7055,-4.7088,-4.7221,-4.7247,-4.7306,-4.7218,-4.7561,-4.7568,-4.7575,-4.7602,-4.7613,-4.7624,0,0,0,0,0,-4.6519,-4.6616,-4.6618,-4.6647,-4.6808,-4.6926,-4.6947,-4.6983,-4.6953,-4.7003,-4.7054,-4.7052,-4.7284,-4.7234,-4.7263,-4.7326,-4.7557,-4.7566,-4.7575,-4.7597,-4.7611,-4.7623,0,0,0,0,0,0,-4.6526,-4.6629,-4.6632,-4.6762,-4.6836,-4.6927,-4.6991,-4.6996,-4.708,-4.7074,-4.7115,-4.7137,-4.7261,-4.7306,-4.7248,-4.7459,-4.7417,-4.7432,-4.7424,-4.7439,-4.7449,-4.7435,-4.7227,0,0,0,0,0,-4.6543,-4.6629,-4.6715,-4.6822,-4.6859,-4.6919,-4.6971,-4.6993,-4.707,-4.7101,-4.7161,-4.7237,-4.7328,-4.7386,-4.7473,-4.761,-4.7631,-4.7668,-4.7679,-4.7688,-4.7699,-4.7777,-4.7795,-4.7607,-4.7607,-4.7607,0,0,-4.6578,-4.6645,-4.6697,-4.6825,-4.6884,-4.6974,-4.6944,-4.704,-4.7107,-4.7116,-4.7236,-4.7284,-4.7372,-4.7503,-4.7564,-4.7545,-4.7757,-4.7699,-4.7705,-4.7712,-4.7788,-4.7806,-4.7821,-4.7613,-4.7612,-4.7611,0,0,-4.6688,-4.6747,-4.6843,-4.6904,-4.6995,-4.7035,-4.7059,-4.7151,-4.7183,-4.7305,-4.7314,-4.7396,-4.755,-4.7613,-4.7665,-4.7805,-4.7806,-4.7832,-4.7889,-4.7964,-4.7979,-4.7992,-4.8043,-4.806,-4.7844,-4.7844,-4.7844,0,-4.672,-4.6854,-4.6892,-4.6989,-4.7046,-4.706,-4.7159,-4.7216,-4.7331,-4.7371,-4.7349,-4.7545,-4.7605,-4.7752,-4.7786,-4.7828,-4.7857,-4.782,-4.7974,-4.7988,-4.8001,-4.8049,-4.8068,-4.7847,-4.7847,-4.7846,-4.7846,0,-4.689,-4.6984,-4.7051,-4.7162,-4.7227,-4.7325,-4.7379,-4.7441,-4.7459,-4.7502,-4.7628,-4.7701,-4.7805,-4.7842,-4.7859,-4.7993,-4.7979,-4.7965,-4.7923,-4.802,-4.8067,-4.8086,-4.785,-4.785,-4.7849,-4.7848,0,0,-4.7004,-4.7139,-4.7163,-4.7215,-4.7318,-4.7392,-4.7492,-4.7594,-4.7647,-4.7727,-4.7812,-4.7945,-4.7934,-4.7994,-4.8019,-4.8086,-4.8193,-4.8064,-4.8067,-4.8086,-4.8347,-4.8355,-4.8376,-4.8196,-4.82,-4.8203,-4.8339,0,-4.7124,-4.7301,-4.734,-4.7492,-4.7581,-4.7598,-4.7686,-4.776,-4.7804,-4.7887,-4.7937,-4.803,-4.8008,-4.8045,-4.8111,-4.8166,-4.8246,-4.8157,-4.8277,-4.828,-4.8252,-4.84,-4.8409,-4.8533,-4.8358,-4.8361,-4.8363,0,-4.7287,-4.7372,-4.7534,-4.7629,-4.7668,-4.7745,-4.7844,-4.7922,-4.8008,-4.8036,-4.8105,-4.8125,-4.8232,-4.8187,-4.8336,-4.8274,-4.8326,-4.8361,-4.8367,-4.8378,-4.8326,-4.8414,-4.8574,-4.8592,-4.8392,-4.839,-4.8387,0,-4.7354,-4.751,-4.7627,-4.7671,-4.7785,-4.784,-4.789,-4.7973,-4.8033,-4.812,-4.816,-4.8258,-4.8312,-4.8389,-4.8435,-4.8399,-4.8581,-4.854,-4.8608,-4.8607,-4.8643,-4.8639,-4.8812,-4.8679,-4.8679,-4.8678,-4.8678,0,-4.7483,-4.7581,-4.7659,-4.7731,-4.7842,-4.7889,-4.7998,-4.8049,-4.8124,-4.8207,-4.8229,-4.8307,-4.8365,-4.8452,-4.849,-4.8608,-4.8632,-4.8658,-4.8667,-4.8655,-4.8652,-4.8688,-4.868,-4.8683,-4.8682,-4.8681,-4.868,0,-4.7575,-4.7631,-4.776,-4.7859,-4.7887,-4.7965,-4.805,-4.8122,-4.8169,-4.8274,-4.8302,-4.8376,-4.848,-4.8535,-4.8664,-4.869,-4.8823,-4.8827,-4.8793,-4.8796,-4.8861,-4.8854,-4.9062,-4.9092,-4.894,-4.8941,-4.8942,0,-4.7653,-4.7729,-4.7837,-4.7895,-4.7947,-4.8039,-4.8101,-4.8152,-4.8216,-4.8323,-4.8382,-4.8487,-4.8574,-4.8739,-4.8805,-4.8905,-4.8912,-4.8978,-4.8927,-4.8914,-4.8912,-4.8907,-4.8915,-4.8986,-4.8987,-4.8988,-4.8989,0,-4.7785,-4.781,-4.7898,-4.7999,-4.8072,-4.8153,-4.8233,-4.828,-4.8344,-4.8416,-4.8522,-4.859,-4.8724,-4.8829,-4.8935,-4.8988,-4.9,-4.9006,-4.9027,-4.9015,-4.8992,-4.9005,-4.8816,-4.9,-4.8999,-4.8998,-4.8997,-4.8997,-4.7872,-4.7941,-4.8029,-4.8128,-4.8195,-4.827,-4.8343,-4.8401,-4.8491,-4.8603,-4.8629,-4.8742,-4.8831,-4.8975,-4.9032,-4.9122,-4.9109,-4.9139,-4.9146,-4.9153,-4.9155,-4.898,-4.9142,-4.9142,-4.9141,-4.9141,-4.9141,0,-4.8005,-4.8063,-4.8154,-4.8267,-4.8346,-4.8352,-4.8442,-4.8508,-4.8607,-4.8689,-4.8774,-4.8899,-4.9002,-4.9078,-4.9184,-4.9242,-4.925,-4.9268,-4.9263,-4.9275,-4.9161,-4.9132,-4.9259,-4.9259,-4.9259,-4.9259,-4.9259,-4.9259,-4.8083,-4.8201,-4.8238,-4.8391,-4.8449,-4.856,-4.8611,-4.8682,-4.8748,-4.8886,-4.8972,-4.9021,-4.9102,-4.9214,-4.931,-4.933,-4.9367,-4.9384,-4.9405,-4.9296,-4.9283,-4.9271,-4.9244,-4.9392,-4.9393,-4.9511,-4.9512,-4.9513]},{"header":{"parameterUnit":"m.s-1","parameterCategory":1,"la1":30.2991,"la2":30.254,"lo1":-89.0895,"lo2":-89.0444,"dy":0.0017,"dx":0.0017,"nx":28,"ny":28,"refTime":"2026-03-05T09:00:00:Z","depth":0,"parameterNumber":3,"parameterNumberName":"V-component_of_WINDS"},"data":[0,0,0,0,0,0,0,0,0,0,0,0,0,0,0,0,0,0,0,0,0,0,0,0,0,0,0,0,0,0,0,0,0,0,0,0,0,0,0,0,0,0,0,0,0,0,0,0,0,0,0,0,0,0,0,0,0,0,1.1344,1.1345,0,1.1427,1.1428,1.1429,1.1524,1.1525,1.1527,1.1528,1.1611,1.1612,1.1613,0,0,0,0,0,0,0,0,0,0,0,0,0,1.1266,1.1267,1.1344,1.1345,1.1346,1.1427,1.1428,1.143,1.1524,1.1525,1.1527,1.1529,1.1611,1.1612,1.1613,0,0,0,0,0,0,0,0,0,0,0,0,0,1.132,1.1268,1.1344,1.1403,1.1409,1.1427,1.1429,1.143,1.1523,1.1525,1.1527,1.1529,1.161,1.1612,1.1613,1.1579,0,0,1.1617,1.1618,0,0,0,0,0,0,0,0,1.1317,1.1323,1.1393,1.1399,1.1406,1.1468,1.1432,1.148,1.1523,1.148,1.1528,1.153,1.1561,1.1567,1.1578,1.1583,1.1586,1.1617,1.1618,1.1619,1.1619,0,0,0,0,0,0,0,1.1313,1.132,1.1377,1.1394,1.1402,1.1425,1.1435,1.1441,1.1508,1.1484,1.1491,1.1499,1.1565,1.1576,1.158,1.1588,1.1617,1.1618,1.1619,1.162,1.1573,1.1571,0,0,0,0,0,0,1.13,1.1316,1.1374,1.138,1.1366,1.1425,1.1436,1.1445,1.1508,1.1519,1.1498,1.1504,1.1573,1.1579,1.1584,1.1551,1.1619,1.162,1.1621,1.1575,1.1573,1.157,0,0,0,0,0,0,1.1298,1.1305,1.1371,1.135,1.136,1.1424,1.1434,1.1446,1.1457,1.1518,1.1531,1.1497,1.1575,1.1582,1.1581,1.1555,1.162,1.1622,1.1577,1.1574,1.1571,1.1482,0,0,0,0,0,0,1.1296,1.1303,1.1291,1.1349,1.1361,1.1366,1.1432,1.1446,1.146,1.1468,1.1521,1.1531,1.1577,1.1578,1.1582,1.1558,1.1623,1.158,1.1576,1.1572,1.1488,1.1476,1.1467,0,0,0,0,0,1.1293,1.1261,1.129,1.1296,1.1346,1.1364,1.1371,1.1425,1.1457,1.1445,1.1485,1.153,1.1557,1.1577,1.1582,1.1558,1.1582,1.1577,1.1573,1.1492,1.1479,1.1467,0,0,0,0,0,0,1.1197,1.127,1.1302,1.1288,1.132,1.138,1.1367,1.1408,1.143,1.1437,1.1502,1.1513,1.1505,1.1531,1.1552,1.153,1.1576,1.1572,1.1513,1.1501,1.149,1.1484,1.1624,0,0,0,0,0,1.1174,1.1183,1.1246,1.1228,1.1242,1.1301,1.1311,1.135,1.1385,1.1398,1.1438,1.1469,1.1486,1.1495,1.1512,1.1492,1.1506,1.1478,1.1468,1.1459,1.1455,1.1449,1.1438,1.1555,1.1555,1.1555,0,0,1.1127,1.1168,1.1169,1.121,1.1238,1.1247,1.1312,1.1317,1.1324,1.1399,1.1401,1.1431,1.1471,1.1461,1.1458,1.1483,1.1426,1.1453,1.1446,1.1447,1.1443,1.1432,1.1422,1.1552,1.1553,1.1553,0,0,1.1046,1.1077,1.1067,1.1095,1.1139,1.1179,1.1177,1.1232,1.1256,1.1259,1.1317,1.1326,1.1351,1.1378,1.1395,1.1328,1.1371,1.1332,1.1277,1.1271,1.1261,1.1254,1.1231,1.1222,1.1328,1.1327,1.1327,0,1.0982,1.0997,1.1056,1.1059,1.1076,1.1146,1.1137,1.1161,1.1208,1.1218,1.1245,1.1281,1.1312,1.1311,1.1295,1.1306,1.1306,1.1326,1.1258,1.1251,1.1244,1.1224,1.1215,1.1323,1.1323,1.1324,1.1324,0,1.0917,1.0927,1.0913,1.0958,1.0974,1.097,1.103,1.1038,1.1077,1.1114,1.1118,1.1159,1.1188,1.1191,1.1227,1.1195,1.1209,1.1246,1.1293,1.1227,1.1209,1.1202,1.1316,1.1317,1.1319,1.132,0,0,1.0776,1.0857,1.0851,1.0874,1.0929,1.0937,1.0938,1.0967,1.0974,1.1005,1.1008,1.1029,1.1065,1.1084,1.1125,1.1119,1.1066,1.1157,1.1159,1.114,1.1036,1.1008,1.0998,1.1095,1.1094,1.1093,1.1033,0,1.0706,1.0712,1.0767,1.0757,1.0768,1.0837,1.0837,1.0871,1.0907,1.0922,1.0962,1.0977,1.1022,1.1034,1.1031,1.1073,1.1046,1.1078,1.1099,1.1099,1.1087,1.0989,1.0959,1.09,1.1026,1.1025,1.1024,0,1.0624,1.0652,1.0644,1.0702,1.0708,1.0708,1.0741,1.0754,1.0795,1.0822,1.0845,1.0891,1.0897,1.0942,1.0951,1.0972,1.0984,1.1006,1.1005,1.1009,1.1058,1.0991,1.0883,1.0874,1.1013,1.1014,1.1015,0,1.0525,1.056,1.0561,1.0578,1.0644,1.0643,1.0671,1.0714,1.0729,1.0758,1.0769,1.0797,1.0813,1.0835,1.0889,1.0916,1.0893,1.0941,1.0916,1.0914,1.0908,1.0907,1.0801,1.0914,1.0914,1.0914,1.0914,0,1.0441,1.0434,1.0517,1.0517,1.0512,1.0576,1.0568,1.0603,1.0641,1.065,1.071,1.0717,1.0788,1.0803,1.0845,1.0848,1.0854,1.0876,1.0888,1.0871,1.0869,1.088,1.0886,1.0912,1.0912,1.0913,1.0913,0,1.0329,1.0384,1.0389,1.0453,1.0469,1.0462,1.0517,1.0521,1.0562,1.0572,1.0578,1.0642,1.0663,1.072,1.0755,1.0783,1.0775,1.0795,1.0761,1.0769,1.0741,1.0743,1.0638,1.0629,1.0746,1.0745,1.0744,0,1.0272,1.0268,1.0332,1.0343,1.0369,1.0385,1.0402,1.0465,1.048,1.0528,1.0526,1.0553,1.0577,1.0609,1.0658,1.0686,1.0709,1.067,1.0713,1.0698,1.071,1.071,1.071,1.066,1.0659,1.0658,1.0656,0,1.0166,1.0194,1.0216,1.0248,1.0267,1.0295,1.0327,1.0332,1.0403,1.0417,1.0441,1.046,1.0498,1.0524,1.0561,1.059,1.0635,1.0643,1.0639,1.0622,1.0603,1.0615,1.0737,1.0645,1.0646,1.0647,1.0647,1.0648,1.0081,1.0082,1.0128,1.0151,1.0182,1.0211,1.0218,1.0261,1.0282,1.0318,1.0354,1.0374,1.0418,1.0472,1.0498,1.0516,1.0539,1.0532,1.0531,1.0529,1.0522,1.06,1.0522,1.0523,1.0523,1.0523,1.0524,0,0.9979,1.0013,1.0034,1.0077,1.0096,1.0139,1.0176,1.0189,1.0206,1.0244,1.0268,1.0296,1.0322,1.0375,1.0406,1.041,1.0432,1.0416,1.0417,1.0423,1.0498,1.0499,1.0398,1.0398,1.0398,1.0398,1.0398,1.0398,0.9929,0.9934,0.9968,0.9989,1.0023,1.0044,1.0062,1.009,1.012,1.0149,1.0172,1.0207,1.0251,1.0287,1.0313,1.0328,1.0337,1.0315,1.0337,1.0406,1.0418,1.0429,1.043,1.0316,1.0316,1.0261,1.026,1.026]}]]